STARLINK-5677, 55463

Orbit data source: Space-Track

STARLINK-5677, 55463 is a payload satellite owned by SpaceX/Seattle (US) in LEO that was launched on Thu, 02 Feb 2023 UTC via an FALCON 9 launch vehicle from the Air Force Eastern Test Range (AFETR). Payload-class satellites include a variety of spacecraft equipped with specific instruments for various scientific and technological missions. These include communications satellites like Starlink; space stations such as the ISS; scientific satellites like the Hubble; Earth observation satellites from companies like Planet Labs, Umbra, and HawkEye 360; GPS; miniature CubeSats for education and research; and military/defense satellites.

Loading next visibility...
Identifier
55463, 2023-015Q
Orbit
LEO
Country
Flag of USUS
Related business
Manufacturer
SpaceX/Seattle
Mission
Operational Commercial Communications
Bus & Motor
STARLINK, Unknown motor
Mass
305 kg wet, ~290 kg dry
Launch date (UTC)
2023-02-02 (3 years ago)
Launch vehicle
FALCON 9
Launch site
Air Force Eastern Test Range (AFETR)
Object type
Payload
Rocket body
Debris
Shape & HBR
Box + 1 Pan, 10.1 m
Radar Cross Section
13.562 m², Large (>1 m²)

Expand to show TLE details & history
Last TLE update: 1 day ago

TLE from 1 day ago
0 STARLINK-5677
1 55463U 23015Q   25302.72738770 -.00000081  00000-0  90922-5 0  9994
2 55463  43.0051 317.6231 0000924 260.1258  99.9480 15.02536506151054
Epoch: 2025-10-29T17:27Z
TLE epoch observation values (Epoch: 2025-10-29T17:27:26.297Z)
Latitude
-0.00002°
Longitude
17.46714°
Altitude
558.967 km
Speed
7.584 km/s
True Right ascension
21h 10m 29s
True Declination
0° 00' 00"
Sunlit
Object was in daylight at epoch
Visualization orbit readout
Latitude
Unknown
Longitude
Unknown
Altitude
Unknown
Speed
Unknown
Apparent Right ascension
Unknown
Apparent Declination
Unknown
Sunlit
N/A
Visualization observer readout
Local Sidereal Time
19:40:48
Azimuth
Unknown
Elevation
Unknown
Doppler factor
Unknown
Orbital elements
Apogee altitude
561.642 km
Perigee altitude
560.36 km
Semi-major axis
6,939.138 km
Eccentricity
0.00009
Inclination
43.0051°
RAAN
317.6231°
Arg. of periapsis
260.1258°
True anomaly
99.95843°
Mean anomaly
99.948°
Eccentric anomaly
99.95321°
Mean motion
3.75478 °/min
Orbital period
95.88 mins
BSTAR
0.0000090922
Loading maneuver chart data...
Computing Atmospheric mass density...
Loading historical data...
Loading historical data...
Loading historical data...
Loading historical data...
Loading historical data...
Loading historical data...
Loading historical data...

Documentation

Showing up to 5 results
|